Regional Weather Roundup
Issued by NWS

Home | Current Version | Previous Version | Text Only | Print | Product List | Glossary On
Versions: 1 2 3 4 5 6 7 8 9 10 11 12 13 14 15 16 17 18 19 20 21 22 23 24 25 26 27 28 29 30 31 32 33 34 35 36 37 38 39 40 41 42 43 44 45 46 47 48 49 50
286
ASUS43 KDTX 172110
RWRMI
MICHIGAN HOURLY REGIONAL WEATHER ROUNDUP
NATIONAL WEATHER SERVICE DETROIT/PONTIAC MI
500 PM EDT TUE OCT 17 2017

NOTE: "FAIR" INDICATES FEW OR NO CLOUDS BELOW 12,000 FEET WITH NO
SIGNIFICANT WEATHER AND/OR OBSTRUCTION TO VISIBILITY.

MIZ047>049-052>055-059>063-066>070-074>076-081>083-172200-
SOUTHEAST LOWER MICHIGAN

CITY           SKY/WX    TMP DP  RH WIND       PRES   REMARKS
ADRIAN         SUNNY     67  39  35 W15G21    30.16F
ALMA           SUNNY     67  42  40 SW14G23   30.09S
ANN ARBOR      SUNNY     68  42  38 SW13      30.13F
BAD AXE        SUNNY     68  43  40 W15G24    30.05S
CARO           SUNNY     69  42  37 SW13G24   30.05S
DETROIT CITY   SUNNY     68  41  37 SW14G22   30.12S
DETROIT        MOSUNNY   69  41  36 SW20      30.14F
FLINT          SUNNY     69  40  34 W20G26    30.09S
GROSSE ILE     SUNNY     67  41  38 SW12G22   30.14F
HILLSDALE      SUNNY     66  37  34 SW13G21   30.16F
HOWELL         SUNNY     67  41  37 SW16      30.12S

CITY           SKY/WX    TMP DP  RH WIND       PRES   REMARKS
JACKSON        SUNNY     66  42  41 SW21G28   30.14S
LAMBERTVILLE   SUNNY     69  38  32 SW8       30.16F
LANSING        SUNNY     69  37  30 W21G29    30.11S
LAPEER         FAIR      69  40  34 W17G23    30.09S
MASON          SUNNY     69  40  35 SW8G21    30.12S
MONROE         SUNNY     69  38  32 SW16G22   30.14F
MT. CLEMENS    PTSUNNY   69  43  39 SW15G24   30.10S
PONTIAC        MOSUNNY   67  42  40 SW14G24   30.10S
PORT HOPE        N/A     67  47  48 W9G22     30.01S
PORT HURON     SUNNY     70  39  32 SW9G23    30.09S
TRI CITIES     SUNNY     69  47  45 W22G28    30.06F
MIDLAND        FAIR      69  46  43 SW16G22   30.05S
TROY           SUNNY     69  39  32 SW17G23   30.13S
SAGINAW HB     SUNNY     68  43  40 W24G30    30.06S
$$
MIZ043>046-050>051-056>058-064>065-071>073-077>080-172200-
SOUTHWEST LOWER MICHIGAN

CITY           SKY/WX    TMP DP  RH WIND       PRES   REMARKS
BATTLE CREEK   SUNNY     67  42  40 SW16G25   30.14F
BENTON HARBOR  SUNNY     68  42  38 SW16      30.14F
BIG RAPIDS     SUNNY     64  42  44 W18G24    30.07S
COLDWATER      SUNNY     67  37  32 SW17      30.16F
FREMONT        FAIR      65  47  53 SW16      30.08F
HOLLAND        SUNNY     66  44  45 SW20G30   30.12F
GRAND RAPIDS   MOSUNNY   66  44  45 W21G30    30.12S
IONIA          FAIR      67  40  37 SW18G30   30.10S
KALAMAZOO      SUNNY     69  38  32 SW15G24   30.15F
LUDINGTON      SUNNY     62  47  59 S12       30.06F
MARSHALL       SUNNY     67  40  38 SW13G24   30.14F
MOUNT PLEASANT SUNNY     68  44  41 SW16G22   30.06S
MUSKEGON       MOSUNNY   65  50  58 SW18G26   30.10F
SOUTH HAVEN    SUNNY     67  40  36 SW14G22   30.14S
$$
MIZ016>042-172200-
NORTHERN LOWER MICHIGAN

CITY           SKY/WX    TMP DP  RH WIND       PRES   REMARKS
ALPENA         SUNNY     68  45  43 W9G22     30.00R
BEAVER ISLAND  SUNNY     61  51  69 SW13      30.00S
BELLAIRE       SUNNY     65  46  50 SW3       30.02S
CADILLAC       SUNNY     66  44  44 SW14      30.05S
CHARLEVOIX     SUNNY     62  51  67 W7        30.05R
FRANKFORT      MOSUNNY   60  48  64 S5        30.05S
GAYLORD        SUNNY     63  42  46 W14       30.02R
GRAYLING       CLOUDY    65  42  43 W6        30.03S
HARBOR SPRINGS SUNNY     60  49  67 W9        30.01S
HOUGHTON LAKE  CLOUDY    65  45  48 SW13      30.04S
MANISTEE       SUNNY     63  48  58 SW10      30.05S
OSCODA         MOSUNNY   67  46  45 W8G21     30.00S
PELLSTON       SUNNY     62  47  57 SW13G21   30.00S
ROGERS CITY    MOSUNNY   67  44  43 W6        30.00R
TRAVERSE CITY  PTSUNNY   66  45  46 SW7       30.01R
$$
MIZ007>008-015-172200-
EASTERN UPPER MICHIGAN

CITY           SKY/WX    TMP DP  RH WIND       PRES   REMARKS
KINROSS        SUNNY     61  47  59 N7        29.97R
MACKINAC ISLAN SUNNY     60  50  71 W12G22    29.99R
NEWBERRY       SUNNY     64  36  35 NW12      29.97R
S. S. MARIE    SUNNY     60  45  57 NW10      29.96S
MUNISING         N/A     61  47  59 NE7       29.97R
$$
MIZ004>006-011>014-085-172200-
CENTRAL UPPER MICHIGAN

CITY           SKY/WX    TMP DP  RH WIND       PRES   REMARKS
MANISTIQUE     SUNNY     60  49  69 S9        29.98R
ESCANABA       SUNNY     63  50  62 S10       29.98S
SAWYER-GWINN   SUNNY     68  37  32 SW7       29.97R
$$
MIZ001>003-009>011-084-172200-
WESTERN UPPER MICHIGAN

CITY           SKY/WX    TMP DP  RH WIND       PRES   REMARKS
IRON MOUNTAIN  SUNNY     71  32  23 CALM      29.96S
HOUGHTON       CLOUDY    65  37  35 W8        29.93S
COPPER HARBOR    N/A     58  51  78 N9        29.94R
IRONWOOD       SUNNY     69  38  32 SW12      29.93F
$$

ABBREVIATIONS USED IN REMARKS
   TC - TEMPERATURE IN CELSIUS
  WCI - WIND CHILL INDEX
   HX - HEAT INDEX
  VSB - VISIBILITY





USA.gov is the U.S. government's official web portal to all federal, state and local government web resources and services.